TimeCST,TemperatureF,Dew PointF,Humidity,Sea Level PressureIn,VisibilityMPH,Wind Direction,Wind SpeedMPH,Gust SpeedMPH,PrecipitationIn,Events,Conditions,WindDirDegrees,DateUTC
12:15 AM,37.9,37.0,97,29.89,4.0,NNW,4.6,-,N/A,,Overcast,330,2012-11-07 06:15:00
12:35 AM,37.9,36.9,96,29.90,4.0,North,3.5,-,N/A,,Overcast,350,2012-11-07 06:35:00
12:55 AM,38.1,37.0,96,29.90,4.0,North,3.5,-,N/A,,Overcast,360,2012-11-07 06:55:00
1:15 AM,38.1,37.0,96,29.90,4.0,North,4.6,-,N/A,,Overcast,360,2012-11-07 07:15:00
1:35 AM,38.3,37.2,96,29.91,3.0,North,4.6,-,N/A,,Overcast,360,2012-11-07 07:35:00
1:55 AM,38.3,37.2,96,29.92,4.0,North,4.6,-,N/A,,Overcast,10,2012-11-07 07:55:00
2:15 AM,38.3,37.0,95,29.93,4.0,North,6.9,-,N/A,,Overcast,10,2012-11-07 08:15:00
2:55 AM,37.9,36.7,95,29.94,5.0,North,5.8,-,N/A,,Overcast,10,2012-11-07 08:55:00
3:15 AM,37.9,36.7,95,29.95,5.0,North,5.8,-,N/A,,Overcast,10,2012-11-07 09:15:00
3:35 AM,37.9,36.7,95,29.95,4.0,North,5.8,-,N/A,,Overcast,360,2012-11-07 09:35:00
3:55 AM,37.9,36.9,96,29.95,4.0,North,5.8,-,N/A,,Overcast,10,2012-11-07 09:55:00
4:15 AM,37.9,36.9,96,29.97,3.0,NNE,4.6,-,N/A,,Overcast,20,2012-11-07 10:15:00
4:35 AM,37.9,36.9,96,29.97,3.0,North,3.5,-,N/A,,Overcast,10,2012-11-07 10:35:00
4:55 AM,37.9,36.9,96,29.98,3.0,North,4.6,-,N/A,,Overcast,10,2012-11-07 10:55:00
5:15 AM,37.9,36.7,95,29.99,4.0,North,3.5,-,N/A,,Overcast,10,2012-11-07 11:15:00
5:35 AM,37.9,36.5,95,30.00,4.0,North,4.6,-,N/A,,Overcast,10,2012-11-07 11:35:00
5:55 AM,37.9,36.7,95,30.01,4.0,North,5.8,-,N/A,,Overcast,360,2012-11-07 11:55:00
6:15 AM,37.9,36.7,95,30.02,3.0,North,5.8,-,N/A,,Overcast,360,2012-11-07 12:15:00
6:35 AM,37.9,36.7,95,30.02,3.0,North,3.5,-,N/A,,Overcast,10,2012-11-07 12:35:00
6:55 AM,37.8,36.7,96,30.03,2.0,North,4.6,-,N/A,,Overcast,350,2012-11-07 12:55:00
7:15 AM,37.8,36.7,96,30.04,1.2,North,5.8,-,N/A,,Overcast,360,2012-11-07 13:15:00
7:35 AM,37.8,36.9,97,30.05,1.0,North,5.8,-,N/A,,Overcast,360,2012-11-07 13:35:00
7:55 AM,38.1,37.2,97,30.06,1.2,North,6.9,-,N/A,,Overcast,360,2012-11-07 13:55:00
8:15 AM,37.9,37.0,97,30.07,2.0,NNE,4.6,-,N/A,,Overcast,20,2012-11-07 14:15:00
8:35 AM,38.3,37.4,97,30.08,1.5,North,5.8,-,N/A,,Overcast,350,2012-11-07 14:35:00
8:55 AM,38.3,37.0,95,30.08,1.5,North,4.6,-,N/A,,Overcast,350,2012-11-07 14:55:00
9:15 AM,38.1,36.9,95,30.09,2.0,North,3.5,-,N/A,,Overcast,360,2012-11-07 15:15:00
9:35 AM,38.5,37.4,96,30.09,2.0,North,4.6,-,N/A,,Overcast,360,2012-11-07 15:35:00
9:55 AM,38.8,37.4,95,30.10,1.8,North,3.5,-,N/A,,Overcast,360,2012-11-07 15:55:00
10:15 AM,39.2,37.4,93,30.10,2.5,North,3.5,-,N/A,,Overcast,360,2012-11-07 16:15:00
10:35 AM,39.4,37.8,94,30.10,3.0,NNW,5.8,-,N/A,,Overcast,330,2012-11-07 16:35:00
10:55 AM,40.6,38.5,92,30.10,3.0,NNW,6.9,-,N/A,,Overcast,330,2012-11-07 16:55:00
11:15 AM,41.5,38.1,88,30.10,5.0,NNW,5.8,-,N/A,,Mostly Cloudy,330,2012-11-07 17:15:00
11:35 AM,41.0,37.6,88,30.10,5.0,NNW,4.6,-,N/A,,Overcast,330,2012-11-07 17:35:00
11:55 AM,41.4,37.6,86,30.09,5.0,NW,4.6,-,N/A,,Overcast,310,2012-11-07 17:55:00
12:15 PM,41.7,36.9,83,30.09,5.0,Calm,Calm,-,N/A,,Overcast,0,2012-11-07 18:15:00
12:35 PM,41.4,36.5,83,30.09,5.0,Calm,Calm,-,N/A,,Overcast,0,2012-11-07 18:35:00
1:15 PM,41.9,36.3,81,30.09,5.0,Calm,Calm,-,N/A,,Overcast,0,2012-11-07 19:15:00
1:35 PM,41.7,36.1,81,30.09,5.0,Calm,Calm,-,N/A,,Overcast,0,2012-11-07 19:35:00
1:55 PM,41.9,35.8,79,30.09,7.0,Calm,Calm,-,N/A,,Overcast,0,2012-11-07 19:55:00
2:15 PM,41.9,36.1,80,30.09,7.0,Calm,Calm,-,N/A,,Overcast,0,2012-11-07 20:15:00
2:35 PM,41.9,36.5,81,30.09,7.0,West,3.5,-,N/A,,Overcast,280,2012-11-07 20:35:00
2:55 PM,41.9,36.7,82,30.09,7.0,West,3.5,-,N/A,,Overcast,270,2012-11-07 20:55:00
3:15 PM,41.7,36.3,81,30.10,7.0,WNW,4.6,-,N/A,,Overcast,290,2012-11-07 21:15:00
3:35 PM,41.9,36.5,81,30.10,7.0,WNW,3.5,-,N/A,,Overcast,300,2012-11-07 21:35:00
3:55 PM,41.9,36.7,82,30.11,7.0,NNW,4.6,-,N/A,,Overcast,330,2012-11-07 21:55:00
4:15 PM,41.4,36.9,84,30.11,7.0,Calm,Calm,-,N/A,,Overcast,0,2012-11-07 22:15:00
4:35 PM,41.4,37.4,86,30.11,7.0,Calm,Calm,-,N/A,,Overcast,0,2012-11-07 22:35:00
4:55 PM,41.2,37.4,86,30.11,7.0,Calm,Calm,-,N/A,,Overcast,0,2012-11-07 22:55:00
5:15 PM,41.0,37.4,87,30.11,7.0,Calm,Calm,-,N/A,,Overcast,0,2012-11-07 23:15:00
5:35 PM,41.0,37.6,88,30.12,7.0,Calm,Calm,-,N/A,,Overcast,0,2012-11-07 23:35:00
5:55 PM,40.8,38.1,90,30.13,7.0,Calm,Calm,-,N/A,,Overcast,0,2012-11-07 23:55:00
6:15 PM,40.6,37.6,89,30.12,7.0,Calm,Calm,-,N/A,,Overcast,0,2012-11-08 00:15:00
6:35 PM,40.5,37.6,89,30.13,7.0,WNW,4.6,-,N/A,,Overcast,300,2012-11-08 00:35:00
6:55 PM,40.6,37.6,89,30.13,7.0,NW,3.5,-,N/A,,Overcast,320,2012-11-08 00:55:00
7:15 PM,40.5,37.4,89,30.13,7.0,Calm,Calm,-,N/A,,Overcast,0,2012-11-08 01:15:00
7:35 PM,40.3,37.6,90,30.14,7.0,Calm,Calm,-,N/A,,Overcast,0,2012-11-08 01:35:00
7:55 PM,40.3,37.4,89,30.14,7.0,North,3.5,-,N/A,,Overcast,350,2012-11-08 01:55:00
8:15 PM,40.1,37.6,91,30.14,7.0,Calm,Calm,-,N/A,,Overcast,0,2012-11-08 02:15:00
8:35 PM,40.3,37.4,89,30.14,7.0,Calm,Calm,-,N/A,,Overcast,0,2012-11-08 02:35:00
8:55 PM,39.9,37.4,91,30.14,7.0,SE,3.5,-,N/A,,Overcast,140,2012-11-08 02:55:00
9:15 PM,40.1,37.6,91,30.14,7.0,Calm,Calm,-,N/A,,Overcast,0,2012-11-08 03:15:00
9:35 PM,40.1,37.4,90,30.14,7.0,Calm,Calm,-,N/A,,Overcast,0,2012-11-08 03:35:00
9:55 PM,39.2,36.7,91,30.14,7.0,Calm,Calm,-,N/A,,Overcast,0,2012-11-08 03:55:00
10:15 PM,38.3,36.7,94,30.14,5.0,Calm,Calm,-,N/A,,Overcast,0,2012-11-08 04:15:00
10:35 PM,38.3,36.9,95,30.14,5.0,Calm,Calm,-,N/A,,Overcast,0,2012-11-08 04:35:00
10:55 PM,37.8,36.5,95,30.14,5.0,Calm,Calm,-,N/A,,Overcast,0,2012-11-08 04:55:00
11:15 PM,37.8,36.7,96,30.13,4.0,Calm,Calm,-,N/A,,Overcast,0,2012-11-08 05:15:00
11:35 PM,38.3,37.2,96,30.14,7.0,SSE,3.5,-,N/A,,Overcast,150,2012-11-08 05:35:00
11:55 PM,41.0,36.5,84,30.13,10.0,South,3.5,-,N/A,,Overcast,180,2012-11-08 05:55:00